Home > Weather > Dresden > Past weeks

Flag for Germany Weather for the Past 2 Weeks in Dresden, Saxony, Germany

Now
55 °F

Sunny.


Feels Like: 55 °F
Forecast: 42 / 64 °F
Wind: 5 mph from North

Location: Dresden-Klotzsche

Current Time: Apr 29, 2016 at 4:14:16 PM

Latest Report: Apr 29, 2016 at 3:20 PM


Visibility: 10 mi

Pressure: 30.09 "Hg

Humidity: 36%

Dew Point: 28 °F

Location of DresdenLocation

Historic Weather in Dresden — Graph

°F

Dresden Temperature Yesterday

Maximum temperature yesterday: 48 °F (at 2:20 PM)
Minimum temperature yesterday: 37 °F (at 5:50 AM)
Average temperature yesterday: 42 °F

High & Low Weather Summary for the Past Weeks

 TemperatureHumidityPressure
High59 °F (Apr 21, 2:50 PM)100% (Apr 14, 9:20 PM)30.39 "Hg (Apr 14, 9:20 PM)
Low32 °F (Apr 24, 6:20 AM)33% (Apr 29, 11:50 AM)29.47 "Hg (Apr 26, 7:50 AM)
Average44 °F72%29.90 "Hg
* Reported Apr 14 2:20 PM — Apr 29 2:50 PM, Dresden, Weather by CustomWeather, © 2016

Note: Actual official high and low records may vary slightly from our data, if they occured in-between our weather recording intervals... More about our weather records

Advertising

Dresden Weather History for the Previous 24 Hours

Scroll right to see more
 ConditionsComfort  
Time TempWeatherWind HumidityBarometerVisibility
2:50 PM
Fri, Apr 29
55 °FSunny.14 mph33%30.09 "Hg10 mi
2:20 PM55 °FPassing clouds.9 mph36%30.09 "HgN/A
1:50 PM57 °FSunny.12 mph36%30.09 "Hg10 mi
1:20 PM55 °FSunny.14 mph36%30.09 "Hg10 mi
12:50 PM54 °FPassing clouds.10 mph33%30.09 "HgN/A
12:20 PM55 °FSunny.10 mph33%30.09 "Hg10 mi
11:50 AM54 °FSunny.13 mph33%30.09 "Hg10 mi
11:20 AM52 °FPassing clouds.10 mph38%30.09 "HgN/A
10:50 AM52 °FPassing clouds.9 mph38%30.09 "HgN/A
10:20 AM50 °FPassing clouds.7 mph43%30.09 "HgN/A
9:50 AM50 °FPassing clouds.7 mph47%30.09 "HgN/A
9:20 AM48 °FPassing clouds.8 mph54%30.09 "HgN/A
8:50 AM45 °FSunny.8 mph61%30.09 "Hg10 mi
8:20 AM41 °FSunny.9 mph70%30.09 "Hg10 mi
7:50 AM39 °FSunny.9 mph75%30.09 "Hg10 mi
7:20 AM37 °FSunny.9 mph81%30.09 "Hg10 mi
6:50 AM36 °FSunny.8 mph87%30.09 "Hg10 mi
6:20 AM32 °FClear.6 mph93%30.07 "Hg10 mi
5:50 AM32 °FPassing clouds.3 mph87%30.07 "HgN/A
5:20 AM32 °FClear.7 mph87%30.07 "Hg10 mi
4:20 AM32 °FClear.6 mph93%30.07 "Hg10 mi
3:50 AM32 °FClear.3 mph93%30.07 "Hg10 mi
3:20 AM34 °FClear.5 mph87%30.07 "Hg10 mi
2:50 AM34 °FClear.5 mph87%30.07 "Hg10 mi
2:20 AM36 °FClear.9 mph81%30.07 "Hg10 mi
1:50 AM36 °FClear.9 mph87%30.07 "Hg10 mi
1:20 AM36 °FClear.8 mph81%30.07 "Hg10 mi
12:20 AM37 °FClear.7 mph75%30.04 "Hg10 mi
11:50 PM
Thu, Apr 28
37 °FClear.5 mph75%30.04 "Hg10 mi
11:20 PM37 °FClear.2 mph70%30.04 "Hg10 mi
10:50 PM39 °FPassing clouds.3 mph70%30.04 "HgN/A
10:20 PM37 °FPassing clouds.3 mph70%30.01 "HgN/A
9:50 PM41 °FPassing clouds.6 mph66%30.01 "HgN/A
9:20 PM41 °FPassing clouds.3 mph66%30.01 "HgN/A
8:50 PM43 °FPassing clouds.5 mph61%30.01 "HgN/A
8:20 PM43 °FPassing clouds.5 mph57%29.98 "HgN/A
7:50 PM45 °FPassing clouds.6 mph57%29.98 "HgN/A
7:20 PM46 °FPassing clouds.6 mph53%29.98 "HgN/A
6:50 PM46 °FPassing clouds.7 mph53%29.98 "HgN/A
6:20 PM46 °FPassing clouds.6 mph57%29.95 "HgN/A
5:50 PM46 °FScattered clouds.10 mph57%29.98 "HgN/A
5:20 PM46 °FScattered clouds.8 mph57%29.95 "HgN/A
4:50 PM43 °FScattered clouds.16 mph66%29.98 "HgN/A
4:20 PM48 °FPassing clouds.14 mph46%29.95 "HgN/A
Weather by CustomWeather, © 2016

See weather overviewHow to use our weather pages